FW8535 Weather Reports


time (UTC)temp
F
wind
direction
speed
knots
gust
knots
rain 1hr
in
rain 24hr
in
rain mn
in
humidity
%
barometer
mb
20260509034605 56 28 2.6 5.2 0.00 0.00 0.00 58 1006.3
20260509034003 56 30 2.6 7.0 0.00 0.00 0.00 57 1006.1
20260509033503 57 43 3.5 7.0 0.00 0.00 0.00 57 1006.0
20260509033002 57 37 3.5 6.1 0.00 0.00 0.00 57 1006.0
20260509032505 57 28 2.6 8.7 0.00 0.00 0.00 56 1006.2
20260509032002 57 42 4.3 8.7 0.00 0.00 0.00 57 1006.5
20260509031506 57 30 2.6 5.2 0.00 0.00 0.00 56 1006.6
20260509031001 57 32 2.6 5.2 0.00 0.00 0.00 56 1006.6
20260509030503 57 34 2.6 5.2 0.00 0.00 0.00 56 1006.5
20260509030001 57 45 2.6 5.2 0.00 0.00 0.00 56 1006.3
20260509025502 57 24 1.7 5.2 0.00 0.00 0.00 55 1006.1
20260509025002 58 38 2.6 7.0 0.00 0.00 0.00 54 1006.0
20260509024603 59 28 3.5 10.4 0.00 0.00 0.00 53 1005.8
20260509024002 59 17 3.5 10.4 0.00 0.00 0.00 53 1005.7
20260509023502 59 34 4.3 13.9 0.00 0.00 0.00 53 1005.5
20260509023002 59 19 4.3 13.9 0.00 0.00 0.00 52 1005.5
20260509022501 59 28 5.2 9.6 0.00 0.00 0.00 52 1005.4
20260509022001 60 26 5.2 9.6 0.00 0.00 0.00 51 1005.1
20260509021501 60 27 3.5 13.0 0.00 0.00 0.00 50 1005.3
20260509021000 61 46 4.3 13.9 0.00 0.00 0.00 50 1005.3
20260509020600 61 9 7.0 13.9 0.00 0.00 0.00 49 1005.1
20260509020108 61 9 6.1 13.0 0.00 0.00 0.00 48 1005.1
20260509015604 62 22 7.0 13.0 0.00 0.00 0.00 48 1004.8
20260509015101 62 32 5.2 11.3 0.00 0.00 0.00 49 1005.0
20260509014600 62 13 4.3 10.4 0.00 0.00 0.00 47 1005.2
20260509013559 64 5 3.5 7.8 0.00 0.00 0.00 40 1004.5
20260509013102 64 12 2.6 6.1 0.00 0.00 0.00 40 1004.2
20260509012558 64 22 1.7 7.0 0.00 0.00 0.00 39 1004.0
20260509012059 65 5 2.6 7.0 0.00 0.00 0.00 39 1003.9
20260509011600 65 28 2.6 9.6 0.00 0.00 0.00 38 1003.7
20260509011058 66 20 2.6 14.8 0.00 0.00 0.00 37 1003.7
20260509010558 67 43 2.6 5.2 0.00 0.00 0.00 32 1003.8
20260509010058 68 11 0.9 7.0 0.00 0.00 0.00 32 1003.6
20260509005558 69 360 3.5 12.2 0.00 0.00 0.00 32 1003.8
20260509005057 69 5 5.2 12.2 0.00 0.00 0.00 32 1003.7
20260509004601 70 360 2.6 14.8 0.00 0.00 0.00 28 1004.1
20260509003557 71 351 5.2 14.8 0.00 0.00 0.00 27 1004.1
20260509003059 71 308 3.5 7.8 0.00 0.00 0.00 26 1004.0
20260509002556 71 269 3.5 8.7 0.00 0.00 0.00 27 1003.8
20260509002057 71 283 0.9 8.7 0.00 0.00 0.00 27 1004.0
20260509001556 71 275 2.6 8.7 0.00 0.00 0.00 26 1003.9
20260509001055 72 281 3.5 9.6 0.00 0.00 0.00 26 1003.9
20260509000555 72 290 4.3 11.3 0.00 0.00 0.00 26 1003.9
20260509000100 73 323 6.1 13.9 0.00 0.00 0.00 25 1004.0
20260508235555 74 272 7.0 13.9 0.00 0.00 0.00 24 1004.1
20260508235055 74 263 6.1 12.2 0.00 0.00 0.00 25 1004.2
20260508234556 72 238 3.5 8.7 0.00 0.00 0.00 27 1004.3
20260508233555 72 265 4.3 10.4 0.00 0.00 0.00 26 1004.5
20260508233053 72 249 4.3 10.4 0.00 0.00 0.00 26 1004.6
20260508232554 73 266 5.2 11.3 0.00 0.00 0.00 26 1004.7
20260508232052 74 268 7.0 11.3 0.00 0.00 0.00 25 1004.8
20260508231551 72 330 3.5 9.6 0.00 0.00 0.00 28 1004.9
20260508231051 71 318 4.3 10.4 0.00 0.00 0.00 27 1004.9
20260508230554 71 308 3.5 10.4 0.00 0.00 0.00 27 1005.0
20260508230050 72 317 4.3 13.9 0.00 0.00 0.00 27 1005.0
20260508225549 72 315 5.2 13.9 0.00 0.00 0.00 27 1005.2
20260508225051 72 348 4.3 14.8 0.00 0.00 0.00 26 1005.3
20260508224611 73 309 4.3 13.0 0.00 0.00 0.00 25 1005.4
20260508223551 73 248 6.1 13.0 0.00 0.00 0.00 25 1005.4
20260508223053 74 262 5.2 11.3 0.00 0.00 0.00 25 1005.6
20260508222551 73 286 2.6 13.9 0.00 0.00 0.00 26 1005.7
20260508222049 73 262 5.2 13.9 0.00 0.00 0.00 25 1005.7
20260508221549 73 327 4.3 11.3 0.00 0.00 0.00 25 1005.6
20260508221048 73 323 6.1 11.3 0.00 0.00 0.00 24 1005.7
20260508220548 74 295 6.1 9.6 0.00 0.00 0.00 24 1005.7
20260508220052 74 334 6.1 13.9 0.00 0.00 0.00 24 1005.7
20260508215547 74 263 7.8 13.9 0.00 0.00 0.00 23 1006.0
20260508215048 75 275 6.1 15.6 0.00 0.00 0.00 22 1005.8
20260508214546 75 301 5.2 13.0 0.00 0.00 0.00 23 1006.0
20260508213544 74 262 4.3 12.2 0.00 0.00 0.00 24 1006.0
20260508213044 75 278 6.1 12.2 0.00 0.00 0.00 23 1006.2
20260508212544 75 273 6.1 12.2 0.00 0.00 0.00 23 1006.2
20260508212042 74 275 5.2 13.9 0.00 0.00 0.00 24 1006.3
20260508211548 74 270 7.0 13.9 0.00 0.00 0.00 23 1006.3
20260508211041 75 329 3.5 13.9 0.00 0.00 0.00 23 1006.6
20260508210540 74 280 6.1 13.9 0.00 0.00 0.00 24 1006.5
20260508210044 73 314 3.5 12.2 0.00 0.00 0.00 24 1006.7
20260508205543 73 290 7.0 12.2 0.00 0.00 0.00 23 1006.8
20260508205038 73 314 4.3 10.4 0.00 0.00 0.00 24 1006.9
20260508204637 74 259 6.1 13.9 0.00 0.00 0.00 23 1007.0
20260508203535 74 268 7.8 11.3 0.00 0.00 0.00 25 1007.0
20260508203041 73 226 4.3 14.8 0.00 0.00 0.00 24 1007.1
20260508202535 73 319 7.8 14.8 0.00 0.00 0.00 24 1007.2
20260508202036 73 13 4.3 13.0 0.00 0.00 0.00 24 1007.1
20260508201534 74 267 7.0 13.0 0.00 0.00 0.00 24 1007.1
20260508201032 73 252 5.2 13.9 0.00 0.00 0.00 24 1007.2
20260508200532 73 287 6.1 13.0 0.00 0.00 0.00 25 1007.2
20260508200033 73 267 4.3 10.4 0.00 0.00 0.00 25 1007.5
20260508195532 73 264 3.5 10.4 0.00 0.00 0.00 24 1007.5
20260508195028 72 330 2.6 10.4 0.00 0.00 0.00 25 1007.7
20260508194535 72 323 4.3 13.9 0.00 0.00 0.00 24 1007.9
20260508193532 72 308 4.3 13.9 0.00 0.00 0.00 24 1007.9
20260508193031 72 284 6.1 12.2 0.00 0.00 0.00 24 1008.0
20260508192532 71 256 3.5 10.4 0.00 0.00 0.00 24 1008.2
20260508192031 72 247 5.2 14.8 0.00 0.00 0.00 23 1008.1
20260508191535 72 243 5.2 14.8 0.00 0.00 0.00 25 1008.2
20260508191028 71 265 5.2 13.9 0.00 0.00 0.00 24 1008.4
20260508190529 70 110 1.7 12.2 0.00 0.00 0.00 23 1008.2
20260508190027 71 267 5.2 12.2 0.00 0.00 0.00 24 1008.5
20260508185527 71 261 3.5 9.6 0.00 0.00 0.00 25 1008.4
20260508185026 70 318 5.2 9.6 0.00 0.00 0.00 25 1008.6
20260508184526 70 301 3.5 8.7 0.00 0.00 0.00 24 1008.6
20260508183525 70 302 5.2 11.3 0.00 0.00 0.00 25 1008.9
20260508183031 69 325 1.7 12.2 0.00 0.00 0.00 25 1008.8
20260508182525 69 326 3.5 12.2 0.00 0.00 0.00 25 1009.0
20260508182025 70 211 5.2 12.2 0.00 0.00 0.00 25 1009.1
20260508181522 69 309 6.1 12.2 0.00 0.00 0.00 25 1009.2
20260508181021 69 317 3.5 9.6 0.00 0.00 0.00 25 1009.2
20260508180522 68 355 3.5 13.0 0.00 0.00 0.00 25 1009.3
20260508180023 69 257 5.2 13.0 0.00 0.00 0.00 25 1009.4
20260508175521 69 269 3.5 13.0 0.00 0.00 0.00 26 1009.5
20260508175021 69 273 6.1 13.0 0.00 0.00 0.00 25 1009.8
20260508174520 68 306 1.7 9.6 0.00 0.00 0.00 26 1009.7
20260508173516 68 281 3.5 12.2 0.00 0.00 0.00 26 1009.8
20260508173015 67 277 5.2 12.2 0.00 0.00 0.00 26 1010.0
20260508172517 68 271 4.3 8.7 0.00 0.00 0.00 26 1009.9
20260508172014 68 273 2.6 10.4 0.00 0.00 0.00 26 1010.0
20260508171515 68 234 5.2 10.4 0.00 0.00 0.00 26 1010.0
20260508171013 67 289 2.6 7.0 0.00 0.00 0.00 27 1010.0
20260508170512 67 336 2.6 9.6 0.00 0.00 0.00 26 1010.3
20260508170012 67 286 5.2 9.6 0.00 0.00 0.00 26 1010.2
20260508165511 66 261 2.6 8.7 0.00 0.00 0.00 27 1010.2
20260508165011 67 334 1.7 10.4 0.00 0.00 0.00 27 1010.2
20260508164510 66 282 4.3 10.4 0.00 0.00 0.00 28 1010.3
20260508163510 66 360 3.5 8.7 0.00 0.00 0.00 28 1010.3
20260508163012 65 276 0.9 7.0 0.00 0.00 0.00 28 1010.2
20260508162509 65 281 2.6 7.0 0.00 0.00 0.00 29 1010.5
20260508162007 65 284 2.6 7.8 0.00 0.00 0.00 29 1010.5
20260508161507 65 319 3.5 7.8 0.00 0.00 0.00 29 1010.5
20260508161006 64 45 0.9 7.0 0.00 0.00 0.00 29 1010.4
20260508160507 64 355 0.9 7.0 0.00 0.00 0.00 29 1010.5
20260508160012 64 277 0.0 6.1 0.00 0.00 0.00 29 1010.6
20260508155507 64 23 2.6 6.1 0.00 0.00 0.00 30 1010.7
20260508155003 63 5 1.7 7.8 0.00 0.00 0.00 30 1010.7
20260508154502 63 283 1.7 4.3 0.00 0.00 0.00 30 1010.6
20260508153508 63 47 1.7 4.3 0.00 0.00 0.00 30 1010.7
20260508153003 62 5 1.7 5.2 0.00 0.00 0.00 31 1010.7
20260508152506 62 355 2.6 5.2 0.00 0.00 0.00 30 1010.8
20260508152004 62 46 3.5 7.0 0.00 0.00 0.00 30 1010.7
20260508151501 61 347 0.9 7.0 0.00 0.00 0.00 31 1010.9
20260508151002 61 42 1.7 6.1 0.00 0.00 0.00 32 1010.9
20260508150502 61 50 2.6 5.2 0.00 0.00 0.00 33 1010.8
20260508150004 61 308 1.7 7.0 0.00 0.00 0.00 32 1011.0
20260508145559 61 86 2.6 8.7 0.00 0.00 0.00 32 1010.9
20260508145100 61 5 3.5 8.7 0.00 0.00 0.00 32 1011.0
20260508144602 60 311 2.6 7.0 0.00 0.00 0.00 33 1011.0
20260508143558 60 5 1.7 7.0 0.00 0.00 0.00 35 1011.2
20260508143119 60 355 1.7 4.3 0.00 0.00 0.00 35 1011.0
20260508142554 59 348 1.7 5.2 0.00 0.00 0.00 37 1011.0
20260508142053 59 315 2.6 5.2 0.00 0.00 0.00 37 1011.2
20260508141552 59 315 1.7 4.3 0.00 0.00 0.00 38 1011.2
20260508141052 59 315 1.7 7.0 0.00 0.00 0.00 39 1011.2
20260508140549 58 325 2.6 7.0 0.00 0.00 0.00 39 1011.1
20260508135550 57 292 0.9 4.3 0.00 0.00 0.00 40 1011.1
20260508135046 57 309 0.9 4.3 0.00 0.00 0.00 41 1011.1
20260508134544 56 312 1.7 7.0 0.00 0.00 0.00 42 1011.0
20260508133546 55 303 0.0 5.2 0.00 0.00 0.00 46 1011.1
20260508133049 54 302 1.7 5.2 0.00 0.00 0.00 46 1010.9
20260508132544 53 294 0.9 5.2 0.00 0.00 0.00 48 1010.9
20260508132042 53 303 0.9 4.3 0.00 0.00 0.00 50 1010.8
20260508131541 52 310 0.9 4.3 0.00 0.00 0.00 50 1010.8
20260508131040 51 294 1.7 3.5 0.00 0.00 0.00 51 1010.7
20260508130538 50 321 0.9 3.5 0.00 0.00 0.00 53 1010.6
20260508130038 49 290 0.0 3.5 0.00 0.00 0.00 55 1010.6
20260508125538 48 287 0.0 1.7 0.00 0.00 0.00 57 1010.6
20260508125036 48 287 0.0 3.5 0.00 0.00 0.00 58 1010.5
20260508124536 47 282 0.0 3.5 0.00 0.00 0.00 59 1010.5
20260508123532 46 309 0.0 2.6 0.00 0.00 0.00 60 1010.4
20260508123034 46 309 0.9 3.5 0.00 0.00 0.00 61 1010.3
20260508122530 45 310 1.7 3.5 0.00 0.00 0.00 61 1010.2
20260508122030 45 284 0.9 3.5 0.00 0.00 0.00 62 1010.3
20260508121530 45 309 0.0 2.6 0.00 0.00 0.00 62 1010.1
20260508121029 45 309 0.9 3.5 0.00 0.00 0.00 62 1010.1
20260508120528 44 308 0.9 3.5 0.00 0.00 0.00 63 1010.1
20260508120028 44 307 0.9 3.5 0.00 0.00 0.00 63 1010.1
20260508115527 44 304 0.9 3.5 0.00 0.00 0.00 64 1010.0
20260508115028 44 302 1.7 3.5 0.00 0.00 0.00 65 1010.0
20260508114527 43 317 0.0 3.5 0.00 0.00 0.00 65 1009.8
20260508113526 44 308 0.9 2.6 0.00 0.00 0.00 64 1009.9
20260508113025 45 308 0.9 2.6 0.00 0.00 0.00 63 1009.7
20260508112527 45 307 0.9 4.3 0.00 0.00 0.00 64 1009.6
20260508112023 45 304 1.7 4.3 0.00 0.00 0.00 64 1009.4
20260508111523 45 316 0.9 3.5 0.00 0.00 0.00 63 1009.3
20260508111022 46 24 0.9 4.3 0.00 0.00 0.00 63 1009.4
20260508110520 46 355 2.6 5.2 0.00 0.00 0.00 64 1009.4
20260508110019 46 22 3.5 5.2 0.00 0.00 0.00 64 1009.3
20260508105519 46 294 0.0 7.0 0.00 0.00 0.00 65 1009.2
20260508105018 46 308 1.7 7.0 0.00 0.00 0.00 65 1008.9
20260508104517 46 35 0.9 5.2 0.00 0.00 0.00 65 1008.9
20260508103516 47 313 2.6 5.2 0.00 0.00 0.00 66 1008.7
20260508103020 47 297 1.7 7.0 0.00 0.00 0.00 65 1008.6
20260508102514 47 281 1.7 6.1 0.00 0.00 0.00 65 1008.5
20260508102013 48 287 2.6 7.0 0.00 0.00 0.00 64 1008.4
20260508101512 48 284 2.6 8.7 0.00 0.00 0.00 63 1008.4
20260508101013 49 307 3.5 9.6 0.00 0.00 0.00 63 1008.4
20260508100511 49 284 5.2 9.6 0.00 0.00 0.00 63 1008.3
20260508100020 49 292 3.5 9.6 0.00 0.00 0.00 64 1008.1
20260508095511 49 317 5.2 10.4 0.00 0.00 0.00 65 1008.2
20260508095013 49 285 6.1 11.3 0.00 0.00 0.00 64 1008.0
20260508094512 50 336 6.1 11.3 0.00 0.00 0.00 64 1008.1
20260508093511 50 293 7.0 13.9 0.00 0.00 0.00 65 1008.1
20260508093008 49 279 6.1 13.9 0.00 0.00 0.00 66 1008.1
20260508092510 49 279 5.2 10.4 0.00 0.00 0.00 66 1008.2
20260508092007 50 300 5.2 10.4 0.00 0.00 0.00 65 1007.9
20260508091506 50 277 5.2 9.6 0.00 0.00 0.00 65 1008.0
20260508091006 50 275 5.2 9.6 0.00 0.00 0.00 65 1007.8
20260508090605 50 281 5.2 7.8 0.00 0.00 0.00 66 1007.9
20260508090005 49 300 3.5 8.7 0.00 0.00 0.00 67 1007.8
20260508085504 49 292 3.5 7.0 0.00 0.00 0.00 67 1007.8
20260508085007 49 317 2.6 7.0 0.00 0.00 0.00 68 1007.9
20260508084505 48 302 2.6 7.0 0.00 0.00 0.00 68 1007.7
20260508083505 48 291 2.6 4.3 0.00 0.00 0.00 69 1007.8
20260508083005 49 299 0.9 5.2 0.00 0.00 0.00 68 1007.8
20260508082504 49 304 3.5 6.1 0.00 0.00 0.00 66 1007.8
20260508082004 51 327 3.5 8.7 0.00 0.00 0.00 65 1007.9
20260508081504 51 292 3.5 10.4 0.00 0.00 0.00 66 1008.0
20260508081003 50 275 3.5 10.4 0.00 0.00 0.00 67 1007.9
20260508080502 49 274 2.6 6.1 0.00 0.00 0.00 68 1008.1
20260508080006 49 284 2.6 4.3 0.00 0.00 0.00 68 1008.0
20260508075503 48 273 1.7 5.2 0.00 0.00 0.00 68 1008.2
20260508075004 48 272 2.6 5.2 0.00 0.00 0.00 67 1008.0
20260508074502 49 272 1.7 3.5 0.00 0.00 0.00 67 1008.1
20260508073503 49 272 2.6 6.1 0.00 0.00 0.00 64 1008.3
20260508073003 50 272 2.6 6.1 0.00 0.00 0.00 63 1008.2
20260508072502 51 271 2.6 7.8 0.00 0.00 0.00 62 1008.3
20260508072002 51 258 3.5 7.8 0.00 0.00 0.00 61 1008.2
20260508071502 51 271 2.6 7.8 0.00 0.00 0.00 61 1008.2
20260508071100 51 241 2.6 7.8 0.00 0.00 0.00 59 1008.4
20260508070603 51 245 3.5 7.0 0.00 0.00 0.00 59 1008.2
20260508065559 51 254 2.6 6.1 0.00 0.00 0.00 59 1008.2
20260508065101 51 244 2.6 5.2 0.00 0.00 0.00 58 1008.3
20260508064600 50 253 1.7 4.3 0.00 0.00 0.00 57 1008.3
20260508063553 49 250 2.6 7.0 0.00 0.00 0.00 57 1008.4
20260508063054 49 240 3.5 7.0 0.00 0.00 0.00 55 1008.3
20260508062552 49 240 2.6 7.0 0.00 0.00 0.00 54 1008.4
20260508062054 49 244 3.5 6.1 0.00 0.00 0.00 53 1008.3
20260508061552 50 254 3.5 6.1 0.00 0.00 0.00 53 1008.3
20260508061051 50 244 3.5 6.1 0.00 0.00 0.00 53 1008.5
20260508060551 50 251 2.6 6.1 0.00 0.00 0.00 51 1008.4
20260508060051 49 248 2.6 5.2 0.00 0.00 0.00 53 1008.6
20260508055551 49 263 3.5 5.2 0.00 0.00 0.00 52 1008.6
20260508055051 49 263 2.6 5.2 0.00 0.00 0.00 53 1008.7
20260508054554 49 263 3.5 5.2 0.00 0.00 0.00 53 1008.7
20260508053553 48 262 3.5 5.2 0.00 0.00 0.00 51 1008.8
20260508053056 48 262 2.6 5.2 0.00 0.00 0.00 51 1008.8
20260508052553 48 261 2.6 3.5 0.00 0.00 0.00 50 1008.9
20260508052050 48 261 2.6 3.5 0.00 0.00 0.00 50 1008.8
20260508051602 49 261 1.7 3.5 0.00 0.00 0.00 49 1008.7
20260508051050 50 261 1.7 3.5 0.00 0.00 0.00 48 1009.0
20260508050550 51 261 1.7 3.5 0.00 0.00 0.00 47 1009.0
20260508045549 50 261 2.6 5.2 0.00 0.00 0.00 48 1009.1
20260508045049 50 261 2.6 3.5 0.00 0.00 0.00 48 1008.9
20260508044554 51 261 1.7 3.5 0.00 0.00 0.00 46 1008.9
20260508043550 51 261 1.7 3.5 0.00 0.00 0.00 46 1008.9
20260508043050 51 259 1.7 3.5 0.00 0.00 0.00 46 1008.8
20260508042550 51 259 1.7 3.5 0.00 0.00 0.00 46 1008.7
20260508042050 51 259 1.7 3.5 0.00 0.00 0.00 46 1008.7
20260508041554 52 257 1.7 4.3 0.00 0.00 0.00 45 1008.8
20260508041050 53 258 1.7 4.3 0.00 0.00 0.00 45 1009.0
20260508040549 53 292 0.9 2.6 0.00 0.00 0.00 45 1008.9
20260508040057 53 292 0.0 0.0 0.00 0.00 0.00 46 1008.9
20260508035552 53 292 0.0 0.0 0.00 0.00 0.00 46 1008.9
20260508035049 52 292 0.0 0.0 0.00 0.00 0.00 45 1009.0